Theta_e
324 323 323 323 323 323 322 323 325 325 326 328 328 328 326 325 324 324 321 322 322 322
324 323 322 323 323 324 323 326 326 325 326 327 328 327 326 324 323 324 324 324 322 321
325 326 324 322 322 322 323 324 325 325 325 327 326 326 326 328 326 326 325 324 322 321
325 325 326 324 326 325 324 324 326 326 326 326 326 326 325 328 325 323 322 322 321 322
324 325 324 325 325 325 325 325 326 326 327 327 326 325 326 327 326 323 322 320 320 321
323 323 324 325 327 325 325 326 326 325 326 327 327 326 325 326 325 324 322 321 321 322
322 323 323 324 327 327 325 326 327 327 327 329 328 328 328 326 324 325 324 323 323 323
322 322 324 323 326 327 325 323 324 326 329 329 329 329 327 327 325 324 323 323 325 325
321 322 323 325 322 327 326 320 321 320 320 321 328 310 315 323 326 325 324 323 324 323
319 320 323 324 322 321 320 318 318 318 317 312 312 309 310 315 327 325 324 323 324 325
318 319 321 322 321 321 322 319 317 316 314 311 307 304 307 312 325 324 323 322 323 324
317 317 318 320 321 320 320 320 317 316 313 310 306 302 308 319 322 321 321 323 320 319
315 317 316 319 321 321 321 319 320 318 313 309 308 299 300 314 321 318 313 310 310 310
314 317 317 321 322 321 322 320 319 320 315 313 308 302 297 300 316 317 314 311 307 309
Wind_Speed
3 2 2 3 2 2 2 2 3 3 5 5 6 6 6 4 5 6 5 7 6 6
4 4 2 3 4 4 3 2 5 5 6 6 6 8 8 5 5 7 6 7 7 8
5 4 3 4 4 5 4 3 6 6 6 7 6 7 7 7 7 11 7 7 10 8
4 4 4 4 4 4 4 5 6 6 6 7 7 6 8 10 10 11 11 9 8 9
5 6 5 5 5 4 4 4 5 5 7 6 6 6 11 11 10 10 11 11 12 11
6 6 5 5 6 4 3 4 5 5 6 7 6 6 7 11 10 9 9 11 12 11
6 5 4 5 6 6 5 4 4 5 4 6 6 5 8 9 10 9 7 6 9 9
6 5 4 4 6 4 4 5 5 7 8 5 5 4 9 9 8 9 9 6 8 9
6 5 4 5 6 6 4 7 10 7 7 6 3 13 12 9 8 7 8 8 8 8
6 5 5 5 6 6 7 7 8 8 8 7 5 11 11 10 7 6 7 8 9 9
7 6 6 5 6 6 6 7 6 7 7 7 5 12 12 10 7 7 6 7 9 9
8 7 7 6 7 5 7 6 4 6 7 7 4 9 10 9 6 7 7 6 6 8
10 9 8 7 7 4 4 5 6 6 7 8 6 5 9 8 5 6 5 5 5 10
10 12 9 8 5 5 4 4 6 7 6 7 7 6 7 6 4 5 5 5 4 3
Wind_Direction
112 89 60 8 58 52 25 46 48 76 119 145 134 125 119 126 132 131 116 113 100 114
113 94 93 29 41 60 51 44 62 69 88 92 108 121 129 127 103 102 105 99 99 103
151 163 161 92 72 76 44 66 66 76 79 93 104 109 112 104 106 105 102 101 101 101
164 152 117 104 112 88 80 70 70 82 89 87 92 105 107 118 112 111 108 103 109 110
124 109 108 109 120 117 114 93 94 84 96 95 95 100 116 129 125 118 112 122 127 126
120 108 126 124 111 122 115 112 105 103 102 116 103 92 82 111 120 117 117 134 129 130
137 137 144 139 136 151 141 138 143 137 124 117 111 109 109 105 110 113 104 111 126 135
154 161 161 128 141 147 139 113 121 99 80 83 94 115 106 113 121 118 123 117 123 128
151 171 168 146 131 151 123 83 88 90 111 109 93 110 107 116 127 135 138 133 134 131
164 165 144 128 109 114 103 102 95 95 94 92 106 131 138 138 138 132 131 134 144 153
161 159 150 140 125 111 112 117 114 106 104 105 93 119 151 144 142 133 131 139 157 170
160 157 162 158 145 132 114 122 124 126 116 111 90 77 102 115 122 131 141 154 162 155
162 161 162 158 153 141 131 134 139 136 143 146 134 86 82 106 123 110 113 96 94 135
158 160 159 150 141 143 146 155 143 148 153 151 160 135 107 82 122 137 136 137 137 133